CAPE
1711 1249 1124 1094 1126 1348 1379 1269 1392 1566 1437 1561 1195 1160 1283 1558 1629 1686 1930 2220 2294 2186 2122 2144 2193 2921 3248 3262 3662 3292 3419 2861 3408 3368 3452 3053 3020 2920 2501 2444 2638 2310
1640 1291 1627 965 952 1568 1295 1361 1560 1633 1794 1674 1506 1290 1356 1307 1368 1519 1700 1930 2057 2003 1961 2016 2233 2634 2795 2826 2750 2826 2675 2694 2366 2807 2728 2862 2866 2619 2659 2577 2398 2103
1520 1557 1424 1231 935 1213 1218 1276 1284 1420 1608 1717 1595 1256 1296 1360 1234 1302 1513 1644 1759 1764 1778 1764 2144 2448 2705 2718 2718 2701 2831 2737 2526 2317 2462 2320 2441 2509 2500 2413 2308 2337
1479 1608 1507 1404 1068 1141 1216 1167 1256 1254 1238 1337 1582 1491 1264 1130 1080 957 874 1614 1281 1501 1550 1436 1787 2312 2469 2582 2671 2781 2752 2634 2510 2602 2548 2466 2635 3022 2952 2861 2762 2718
1467 1503 1624 1499 1403 1338 1382 1224 1143 1151 1144 1166 1203 1270 1229 1080 902 762 724 903 1205 1221 1326 1349 1527 1811 2243 2328 2376 2534 2756 2768 2600 2628 2608 2500 2449 2641 3004 3123 2975 2653
1519 1515 1540 1519 1414 1418 1477 1524 1352 1107 1145 1116 1108 1067 1103 1009 803 623 539 687 1201 1188 1189 1226 1474 1587 1730 2000 2093 2163 2269 2582 2691 2862 2927 2881 2768 2670 2838 2941 2831 2657
1657 1642 1624 1494 1440 1354 1279 1303 1386 1350 1232 1100 1082 1070 973 804 878 852 691 719 463 1065 1173 1190 1245 1439 1605 1780 1834 1866 1946 2085 2335 2444 2445 2582 2695 2694 2638 2695 2680 2535
1746 1756 1796 1685 1486 1653 1467 1302 1247 1213 1129 963 899 898 655 677 529 687 768 742 508 506 861 1197 1221 1227 1307 1602 1806 1808 1846 1963 2067 2122 2149 2150 2280 2463 2587 2607 2663 2604
1726 1753 1786 1861 1825 1748 1704 1380 1245 1266 1114 804 704 647 692 595 470 466 494 513 450 504 586 685 788 1056 1250 1302 1587 1800 1819 1938 2066 2078 2037 2122 2367 2608 2669 2638 2639 2710
1797 1745 1732 1740 1794 1803 1779 1690 1494 1228 1088 839 549 526 657 641 538 540 518 427 638 561 484 619 818 974 1079 1043 1122 1391 1713 1815 1930 2028 2065 2045 2106 2307 2588 2787 2890 2947
1826 1849 1831 1748 1742 1760 1814 1823 1711 1400 1142 837 606 502 530 587 566 552 548 604 416 601 799 821 773 932 1140 1238 1184 1110 1324 1589 1721 1814 1902 1956 1952 2080 3094 2948 2982 2892
1739 1654 1661 1859 1847 1807 1817 1815 1728 1607 1386 1114 1224 979 899 639 625 474 736 515 664 788 885 804 939 1085 1146 1222 1242 1151 1057 1392 1601 1708 1762 1822 1887 2018 2331 2425 2418 2288
1460 1440 1316 1457 1737 1835 1792 1690 1542 1338 1104 1026 1058 1112 784 682 628 542 1144 700 753 718 690 782 837 792 894 1115 1186 1065 977 1093 1586 1740 1794 1778 1833 1879 1917 1943 1914 1778
1540 1287 1298 1250 1239 1286 1372 1462 1453 1302 1111 890 701 651 951 1082 1102 1128 1032 899 566 618 839 914 817 748 749 567 641 638 698 797 971 1585 1813 1886 1939 1942 1910 1880 1868 1764
1621 1750 1574 1318 1762 1241 1172 1134 1407 1380 1344 1360 1479 1302 1263 1218 1300 1170 856 797 876 1116 1295 1034 800 784 748 641 548 577 820 640 701 766 1236 1538 1714 1882 1953 1990 1932 1787
2160 2345 2293 2321 2299 2067 1647 1432 1383 1327 1767 1596 1459 1264 1336 1502 1421 1360 1385 978 822 892 1007 1019 763 790 1142 1127 938 805 872 991 880 1156 1380 1413 1432 1393 1297 1296 1394 1368
1917 2336 2245 2150 1974 1991 2079 2006 2210 2291 1950 1783 1678 1360 1568 1982 2519 1750 1510 1240 984 784 870 1007 891 735 1254 686 637 1182 1476 1062 1246 1340 1391 1578 1463 1294 1292 1285 1282 1251
1795 1710 1683 1629 1658 1700 1694 1686 1614 1617 1586 2024 1880 1717 1676 1978 1650 1635 1642 1750 1438 1011 748 659 677 900 814 700 667 792 1680 1602 1192 1144 1241 1386 1514 1477 1401 1338 1426 1344
1461 1426 1408 1431 1395 1354 1332 1344 1276 1309 1360 1407 1563 1813 1892 1709 1696 1749 1932 1955 1838 1982 2257 1287 1098 1002 1139 1105 1135 1327 1556 2018 1488 1572 1664 1594 1623 1575 1385 1367 1340 1358
913 1082 1144 956 1037 966 1029 1306 1247 1155 1282 1398 1495 1591 1758 1904 1886 1768 1794 1929 1918 1750 1679 1331 1278 1234 1314 1370 1416 1491 1525 1474 1495 1893 1643 1570 1570 1558 1486 1511 1484 1442
511 647 635 716 660 685 744 945 1152 1080 1164 1284 1396 1515 1575 1578 1596 1701 1776 1782 1711 1718 1701 1678 1460 1449 1465 1462 1451 1391 1275 1157 984 1333 1797 1703 1603 1560 1567 1522 1459 1402
426 471 420 755 634 575 646 742 855 1027 1085 1212 1235 1272 1320 1340 1376 1390 1436 1507 1494 1446 1532 1606 1711 1735 1784 1842 1820 1691 1499 1242 979 834 1254 1613 1581 1508 1539 1533 1541 1737
387 491 409 872 670 695 829 914 891 1001 1049 1016 1021 1066 1044 1040 1064 1084 1221 1348 1352 1275 1248 1272 1257 1260 1381 1542 1630 1651 1557 1356 1151 934 1078 1647 1413 1318 1584 1848 1879 1826
452 418 436 603 665 639 758 804 827 795 748 721 716 740 792 797 755 734 709 757 846 939 962 958 958 924 895 857 879 852 948 1085 1066 1053 1702 1214 1300 1461 1840 1950 1463 1534
286 316 395 437 422 364 305 284 177 154 142 145 159 151 130 116 92 1 119 170 175 206 199 252 330 460 536 606 681 776 795 825 894 1136 1390 1119 1143 1322 1491 1587 1508 1385
172 180 172 241 318 295 233 137 74 96 102 96 87 104 107 67 6 5 94 44 6 3 1 3 53 184 145 0 0 17 310 446 624 703 956 894 864 993 1074 1006 1069 1267
Wind_Speed
5 7 6 6 5 5 4 4 5 4 5 5 4 4 4 5 5 4 3 3 3 3 2 2 3 3 3 3 4 5 5 4 5 5 4 4 4 3 3 4 5 3
5 5 7 6 6 6 4 3 3 4 4 5 4 4 5 5 5 4 3 3 3 3 2 2 2 2 2 2 3 4 5 5 5 5 5 5 4 5 4 3 3 4
6 6 6 5 5 6 5 5 4 4 5 5 5 5 4 5 4 4 3 2 2 2 2 1 1 1 1 2 3 4 4 4 4 5 6 6 6 6 4 4 4 5
6 6 6 6 6 6 6 6 6 5 6 5 5 5 5 5 5 3 3 2 2 3 2 2 1 1 2 3 4 3 3 3 4 5 5 6 5 5 4 4 5 5
6 6 7 7 7 6 7 6 5 4 4 4 5 5 5 5 6 5 4 3 2 2 2 2 2 2 2 3 4 3 3 3 4 5 5 3 3 5 4 4 4 4
8 8 7 7 7 7 6 5 4 3 3 3 2 4 3 2 3 4 4 4 3 2 2 3 3 2 2 3 3 3 2 2 3 6 5 3 2 3 4 3 4 4
9 9 7 7 6 5 4 4 5 5 3 3 4 3 4 3 3 2 3 4 5 5 4 4 4 3 4 4 4 3 2 2 3 5 5 3 3 2 3 3 4 4
10 10 9 8 7 6 6 6 6 8 9 9 5 3 4 5 5 5 5 4 5 6 6 6 5 5 4 5 5 4 3 3 3 4 5 4 4 3 3 4 4 4
11 12 12 10 10 12 12 12 12 12 13 12 11 12 13 12 11 9 6 6 6 7 8 8 8 7 6 7 6 5 4 4 5 6 6 5 6 6 6 7 6 7
14 14 14 13 13 13 12 12 12 11 12 12 12 13 13 13 13 13 12 9 7 7 8 8 9 9 9 8 6 6 6 6 6 8 8 8 8 8 8 10 10 10
17 17 15 15 14 14 14 14 14 14 14 14 14 13 12 12 11 13 14 15 13 13 12 10 8 9 10 10 9 8 7 7 7 8 9 10 10 9 10 13 17 16
19 19 16 15 16 15 14 14 14 15 15 16 17 15 14 12 12 13 14 15 15 14 15 15 15 15 15 14 12 11 10 8 8 9 10 10 11 11 16 18 15 13
23 21 21 19 19 18 17 17 15 15 16 16 17 17 15 13 12 14 15 15 14 14 15 15 15 15 15 16 16 16 12 10 9 10 11 11 11 17 18 16 15 15
25 26 26 25 24 24 22 21 20 19 18 18 18 17 16 14 14 14 17 17 16 15 15 16 16 17 17 15 13 15 16 13 10 11 14 14 18 19 18 17 16 16
33 30 29 28 27 25 24 24 23 23 22 22 21 20 19 19 20 20 20 19 19 18 18 17 16 14 15 16 14 14 19 21 16 10 15 20 20 19 19 17 17 17
32 30 31 32 30 26 25 25 25 26 26 25 24 22 21 21 21 22 21 20 20 20 20 19 18 17 15 17 17 16 14 18 18 16 19 20 21 21 20 19 18 18
29 30 32 35 35 31 28 28 27 27 27 27 27 25 24 24 24 22 22 22 21 20 20 21 21 19 16 17 15 12 16 17 17 18 20 23 22 23 22 21 20 18
32 35 34 35 38 36 32 31 29 29 30 31 29 26 25 25 25 24 25 25 23 22 22 22 24 26 19 16 15 13 15 20 20 21 22 22 23 23 24 24 23 22
28 32 35 36 40 40 36 33 32 31 30 32 33 31 29 28 28 29 29 28 29 29 29 32 34 35 32 30 27 21 13 15 21 23 25 25 24 24 25 25 26 26
21 26 29 33 38 44 45 41 35 32 32 33 34 34 33 32 31 31 29 28 29 32 37 34 33 35 34 33 31 28 24 20 21 24 27 27 25 24 24 25 26 30
26 27 27 27 29 35 42 43 40 36 35 36 36 36 35 34 32 32 30 30 30 36 36 36 34 39 36 34 31 30 27 24 23 24 26 27 27 27 26 27 28 29
29 30 29 27 27 30 34 37 38 37 37 39 41 41 40 38 38 37 36 34 33 36 39 38 38 41 37 36 35 32 31 28 27 26 26 29 30 32 35 36 35 36
30 31 31 28 30 32 30 31 33 35 36 36 41 43 44 45 43 40 39 41 44 42 41 40 40 41 40 40 38 37 35 32 31 30 29 32 38 40 40 36 37 39
32 34 33 32 33 33 33 33 34 35 37 36 39 41 44 45 44 45 44 43 44 44 42 42 42 42 41 40 39 40 40 37 35 33 34 40 40 43 41 38 42 49
30 32 33 35 35 35 36 38 38 38 37 37 38 40 43 44 nan nan 45 45 45 44 48 45 42 42 44 43 43 43 42 43 41 42 41 38 39 44 44 46 47 50
27 28 29 31 33 33 34 36 nan nan 34 nan nan 40 43 nan nan nan nan nan nan nan nan nan nan 43 45 nan nan nan 45 43 43 45 42 43 42 47 49 47 47 48
Wind_Direction
162 160 144 144 140 149 159 165 160 165 155 156 152 143 138 135 140 141 136 138 126 110 114 130 139 157 183 186 200 206 207 208 201 204 210 214 212 217 198 197 204 211
181 179 167 165 159 157 161 172 188 186 174 170 165 168 161 165 143 155 151 143 141 116 137 139 144 161 183 203 214 218 203 206 197 220 222 232 231 229 224 217 210 221
202 204 192 183 169 163 160 170 191 195 195 182 180 174 163 182 172 164 151 149 136 115 118 138 168 195 239 233 235 233 231 226 217 216 229 232 235 234 230 220 232 241
218 219 219 205 197 185 182 186 186 191 199 202 188 178 173 165 182 188 180 143 149 139 142 185 184 256 270 271 260 250 242 245 249 249 242 240 249 253 238 250 260 245
258 238 232 230 220 214 205 199 191 199 199 197 206 199 182 183 182 181 208 191 186 160 183 188 209 228 248 253 262 265 247 243 245 259 264 256 245 258 257 262 249 235
269 260 252 248 246 237 227 218 213 220 217 217 221 227 219 215 205 193 203 225 223 232 233 223 224 216 230 237 249 259 254 247 251 266 272 268 240 255 258 250 240 235
274 268 271 266 263 258 248 227 226 237 255 265 255 265 279 282 283 264 237 241 253 246 247 256 254 238 238 243 252 250 239 247 250 272 276 267 259 225 243 247 250 247
278 271 266 256 258 252 239 226 205 212 220 220 234 256 277 291 290 278 270 281 278 269 262 263 261 260 259 264 270 272 273 267 268 275 275 271 272 266 254 263 266 264
255 269 270 262 256 247 249 243 237 235 234 236 234 232 233 230 230 230 242 281 287 288 287 276 267 264 263 270 275 283 292 286 286 289 293 291 290 291 284 283 285 279
249 254 268 270 267 262 265 258 251 244 241 240 237 235 233 237 241 243 245 233 235 276 292 288 282 277 273 269 277 281 280 287 284 286 291 294 291 291 291 292 296 288
252 258 267 272 272 262 261 262 256 253 248 249 251 248 247 252 254 248 243 251 250 235 230 239 264 286 288 280 270 265 270 275 277 278 286 289 290 290 297 283 271 272
246 253 260 264 262 258 257 257 255 252 249 248 256 256 254 258 263 260 260 257 258 257 255 252 248 243 245 248 253 261 271 272 271 274 278 283 285 289 276 278 287 284
236 243 241 238 246 251 248 245 245 248 250 250 251 253 252 252 256 265 269 267 260 265 272 270 262 257 258 258 256 255 250 260 280 286 286 284 286 279 284 285 282 277
229 234 237 234 236 241 243 241 238 237 239 236 236 237 238 242 252 261 263 267 272 273 267 263 265 266 267 272 276 275 271 262 256 289 295 283 277 282 283 283 284 283
227 227 231 232 232 236 240 242 240 238 236 233 233 234 235 235 235 241 250 256 260 269 270 267 267 271 278 283 274 264 271 268 258 244 281 286 282 280 280 280 281 281
232 233 236 234 231 232 239 242 241 239 235 234 234 235 239 244 241 240 245 253 255 257 261 264 266 267 270 278 271 260 273 279 285 291 287 285 283 282 280 278 279 277
241 238 239 234 228 230 238 242 242 240 236 233 234 237 240 243 246 248 247 243 244 255 262 262 259 259 265 274 278 278 278 285 281 275 279 283 284 284 283 284 281 282
237 242 244 237 231 233 238 240 241 241 236 233 233 237 242 244 244 246 246 246 251 259 261 261 255 238 237 255 260 269 292 291 288 286 285 281 279 282 282 284 285 281
237 243 246 241 236 238 241 240 239 239 239 237 238 243 248 248 244 242 243 245 249 255 253 247 247 234 231 228 231 234 253 282 284 284 280 277 277 277 278 279 281 280
254 257 255 250 242 238 236 234 234 235 237 240 243 248 251 250 248 244 241 241 246 252 254 251 243 232 232 234 237 237 239 250 274 275 276 275 273 274 273 275 276 278
261 260 261 258 255 249 242 237 234 235 237 240 243 247 250 252 251 250 251 248 246 248 254 252 245 235 240 241 245 244 243 246 258 260 267 270 268 267 266 266 267 271
256 256 255 250 249 250 247 242 241 240 240 243 245 244 245 247 248 248 247 247 247 249 252 249 243 234 238 241 241 243 239 257 258 259 262 264 265 261 258 255 257 261
250 252 252 247 243 245 247 247 247 244 244 247 250 248 246 246 247 247 246 248 250 250 251 251 246 236 235 240 244 242 245 252 256 260 262 261 258 255 254 259 264 266
243 244 245 242 240 242 244 246 245 244 245 247 251 252 250 247 247 247 247 248 251 251 251 252 250 242 237 237 242 246 249 252 254 258 265 265 267 265 264 261 262 272
241 244 246 244 241 239 242 245 243 243 244 245 249 252 253 251 nan nan 250 250 250 252 251 252 252 249 243 241 241 241 251 256 256 257 257 259 268 271 267 262 260 259
242 246 247 247 246 243 243 244 nan nan 245 nan nan 252 253 nan nan nan nan nan nan nan nan nan nan 253 250 nan nan nan 244 254 258 261 262 260 259 273 266 263 258 257